Regional Weather Roundup
Issued by NWS

Home | Current Version | Previous Version | Graphics & Text | Print | Product List | Glossary On
Versions: 1 2 3 4 5 6 7 8 9 10 11 12 13 14 15 16 17 18 19 20 21 22 23 24 25 26 27 28 29 30 31 32 33 34 35 36 37 38 39 40 41 42 43 44 45 46 47 48 49 50
000
ASUS43 KDMX 261803
RWRIA

WEATHER ROUNDUP FOR IOWA
NATIONAL WEATHER SERVICE DES MOINES IA
100 PM CDT FRI AUG 26 2016

NOTE: "FAIR" INDICATES FEW OR NO CLOUDS BELOW 12,000 FEET WITH NO
SIGNIFICANT WEATHER AND/OR OBSTRUCTIONS TO VISIBILITY.

* - THESE STATIONS ARE NOT NWS STATIONS...THUS NOT UNDER NWS
QUALITY CONTROL.  THEY ALSO DO NOT REPORT WEATHER SUCH
AS PRECIPITATION OR FOG.

IAZ001>003-012>014-020>022-031>034-043>046-261900-
   NORTHWEST IOWA

CITY           SKY/WX    TMP DP  RH WIND       PRES   REMARKS
CARROLL *      PTSUNNY   70  63  78 SE10G17   30.14F
CHEROKEE *     CLOUDY    69  61  74 E8        30.15F
DENISON *      CLOUDY    70  61  73 E10       30.12S HAZE
LE MARS *      CLOUDY    70  61  73 SE5       30.15F
ORANGE CITY *  CLOUDY    70  59  68 E5        30.15F
SHELDON *      CLOUDY    68  61  77 VRB7G13   30.15F
SIOUX CITY     CLOUDY    72  61  68 E6        30.13F
6HR MIN TEMP:  54; 6HR MAX TEMP:  72;

SPENCER        CLOUDY    68  57  68 SE7       30.17F
6HR MIN TEMP:  50; 6HR MAX TEMP:  69;

STORM LAKE *   CLOUDY    68  61  77 SE7       30.16F
$$

IAZ055>058-069>071-079>083-090>094-261900-
   SOUTHWEST IOWA

CITY           SKY/WX    TMP DP  RH WIND       PRES   REMARKS
ATLANTIC *     DRIZZLE   68  63  83 SE12      30.12F
AUDUBON *      CLOUDY    70  63  78 SE7       30.14F
CLARINDA *       N/A     70  61  73 MISG      30.14R
COUNCIL BLFS * CLOUDY    66  63  88 SE7       30.14R
CRESTON *      PTSUNNY   66  63  88 E9G17     30.12F
HARLAN  *      CLOUDY    70  63  78 SE12      30.16F
LAMONI         CLOUDY    74  63  68 E12       30.09F
6HR MIN TEMP:  61; 6HR MAX TEMP:  74; 6HR PCP:  0.16;

RED OAK *      CLOUDY    70  61  73 E9        30.12S
SHENANDOAH *   CLOUDY    70 -38   1 E5G12     30.12S
$$

IAZ047>049-059>061-072>074-084-261900-
   CENTRAL IOWA

CITY           SKY/WX    TMP DP  RH WIND       PRES   REMARKS
AMES           CLOUDY    68  63  84 E5        30.16S
6HR MIN TEMP:  57; 6HR MAX TEMP:  70;

ANKENY *         N/A    N/A N/A N/A MISG        N/A
BOONE *        CLOUDY    68  61  77 SE8       30.15F
CHARITON *       N/A     75  64  69 MISG      30.12F
DES MOINES     CLOUDY    70  60  70 NE8       30.13F
6HR MIN TEMP:  65; 6HR MAX TEMP:  71; 6HR PCP:  0.01;

GRINNELL*      CLOUDY    73  62  69 E9        30.16R
KNOXVILLE *    CLOUDY    73  63  68 E8        30.12F
MARSHALLTOWN   PTSUNNY   69  62  78 E6        30.16S
6HR MIN TEMP:  57; 6HR MAX TEMP:  69; 6HR PCP: TRACE;

NEWTON *       CLOUDY    70  64  83 NE5       30.15S
PERRY *          N/A     72  65  78 SE8       30.14F
$$

IAZ004>006-015-016-023>025-035-036-261900-
   NORTH CENTRAL IOWA

CITY           SKY/WX    TMP DP  RH WIND       PRES   REMARKS
ALGONA *       CLOUDY    68  57  68 SE6       30.17F
ESTHERVILLE    CLOUDY    66  58  75 SE8       30.17F
6HR MIN TEMP:  50; 6HR MAX TEMP:  66;

FORT DODGE *   CLOUDY    70  61  73 SE8       30.17S
MASON CITY     CLOUDY    68  57  68 CALM      30.19F
6HR MIN TEMP:  52; 6HR MAX TEMP:  68;

FOREST CITY *    N/A    N/A N/A N/A MISG        N/A
WEBSTER CITY * CLOUDY    70  63  78 SE12      30.15R
IOWA FALLS *   CLOUDY    70  60  70 SE6       30.19R
$$

IAZ007>011-017>019-026>030-037>042-050>054-066-261900-
   NORTHEAST IOWA

CITY           SKY/WX    TMP DP  RH WIND       PRES   REMARKS
CEDAR RAPIDS   CLOUDY    73  65  75 E10       30.14F
6HR MIN TEMP:  63; 6HR MAX TEMP:  73;

CHARLES CITY * CLOUDY    70  57  64 CALM      30.18F
CLINTON *      CLOUDY    75  64  68 NE9       30.16F
DECORAH *      CLOUDY    68  55  64 NE5       30.17F
DUBUQUE        PTSUNNY   72  59  63 E7        30.18F
6HR MIN TEMP:  61; 6HR MAX TEMP:  72;

MONTICELLO *   CLOUDY    73  61  64 E6        30.16F
OELWEIN *      CLOUDY    68  59  73 E5        30.18S
WATERLOO       CLOUDY    68  58  70 NE8       30.14F
6HR MIN TEMP:  56; 6HR MAX TEMP:  70;

$$

IAZ064-065-067-068-078-261900-
   EAST CENTRAL IOWA

CITY           SKY/WX    TMP DP  RH WIND       PRES   REMARKS
DAVENPORT      MOSUNNY   76  63  64 E10       30.15F
6HR MIN TEMP:  63; 6HR MAX TEMP:  76;

IOWA CITY      CLOUDY    74  62  66 E7        30.15F
6HR MIN TEMP:  65; 6HR MAX TEMP:  74;

MT. PLEASANT * CLOUDY    79  66  63 E12       30.13F HX  81
MUSCATINE *    CLOUDY    75  63  64 E8        30.13F
QUAD CITIES    CLOUDY    77  63  61 E12       30.13F
6HR MIN TEMP:  65; 6HR MAX TEMP:  77;

$$

IAZ062-063-075>077-085>089-095>099-261900-
   SOUTHEAST IOWA

CITY           SKY/WX    TMP DP  RH WIND       PRES   REMARKS
BURLINGTON     PTSUNNY   75  64  68 E10       30.13F
6HR MIN TEMP:  66; 6HR MAX TEMP:  76; 6HR PCP:  0.05;

FAIRFIELD *    MOSUNNY   75  63  64 SE13      30.12F
FORT MADISON * MOSUNNY   75  64  69 E7        30.14F
KEOKUK *       CLOUDY    75  66  73 E13       30.12F
OSKALOOSA *      N/A     74  65  72 E12       30.13F
CENTERVILLE *    N/A     75  64  69 E9        30.14F
OTTUMWA        CLOUDY    75  62  64 SE13      30.12F
6HR MIN TEMP:  65; 6HR MAX TEMP:  75; 6HR PCP:  0.02;

WASHINGTON *   CLOUDY    73  64  73 E9        30.14F
$$

ABBREVIATIONS USED IN REMARKS
   TC - TEMPERATURES IN CELSIUS
  WCI - WIND CHILL INDEX
   HX - HEAT INDEX
  VSB - VISIBILITY
$$





USA.gov is the U.S. government's official web portal to all federal, state and local government web resources and services.